Weather History for Hamilton Island, QU

Change the Weather History Date:

Wednesday, October 31, 2012

  Actual Average Record
Temperature  
Mean Temperature 76 °F -  
Max Temperature 78 °F - - ()
Min Temperature 73 °F - - ()
Cooling Degree Days 10    
Growing Degree Days 26 (Base 50)    
Moisture  
Dew Point 64 °F    
Average Humidity 66    
Maximum Humidity 78    
Minimum Humidity 56    
Precipitation  
Precipitation 0.00 in - - ()
Sea Level Pressure  
Sea Level Pressure 29.98 in    
Wind  
Wind Speed 14 mph ()    
Max Wind Speed 23 mph    
Max Gust Speed -    
T = Trace of Precipitation, MM = Missing Value Source: Averaged Metar Reports

Daily Weather History Graph

Daily Weather History Graph

Search for Another Location

Airport:

Trip Planner

Search our weather history database for the weather conditions in past years. The results will help you decide how hot, cold, wet, or windy it might be!

Date:

Astronomy

Oct. 31, 2012 Rise Set
Actual Time 5:22 AM AEST 6:13 PM AEST
Civil Twilight 4:59 AM AEST 6:36 PM AEST
Nautical Twilight 4:32 AM AEST 7:03 PM AEST
Astronomical Twilight 4:05 AM AEST 7:30 PM AEST
Moon 7:26 PM AEST (10/31) 6:02 AM AEST (10/31)
Length of Visible Light 13h 36m
Length of Day
12h 50m
Full, 99% of the Moon is Illuminated
Oct 31
Full
Nov 7
Last Quarter
Nov 14
New
Nov 21
First Quarter
Nov 29
Full

Hourly Weather History & Observations

Time (AEST) Temp. Dew Point Humidity Pressure Visibility Wind Dir Wind Speed Gust Speed Precip Events Conditions
12:00 AM 74 °F 63 °F 61% 30.00 in - East 16.1 mph - -  
12:00 AM 73.4 °F 62.6 °F 69% 29.98 in - East 16.1 mph - N/A   Unknown
12:30 AM 73.4 °F 64.4 °F 73% 29.98 in - East 16.1 mph - N/A   Unknown
1:00 AM 75.2 °F 64.4 °F 69% 29.98 in - East 15.0 mph - N/A   Unknown
1:30 AM 73.4 °F 64.4 °F 73% 29.98 in - East 17.3 mph - N/A   Unknown
2:00 AM 73.4 °F 66.2 °F 78% 29.95 in - East 10.4 mph - N/A   Unknown
2:30 AM 75.2 °F 64.4 °F 69% 29.95 in - ESE 13.8 mph - N/A   Unknown
3:00 AM 74 °F 64 °F 62% 29.97 in - ESE 13.8 mph - -  
3:00 AM 73.4 °F 64.4 °F 73% 29.95 in - ESE 13.8 mph - N/A   Unknown
3:30 AM 73.4 °F 64.4 °F 73% 29.95 in - ESE 12.7 mph - N/A   Unknown
4:00 AM 73.4 °F 64.4 °F 73% 29.98 in - ESE 10.4 mph - N/A   Unknown
4:30 AM 73.4 °F 64.4 °F 73% 29.98 in - ESE 11.5 mph - N/A   Unknown
5:00 AM 73.4 °F 64.4 °F 73% 29.98 in - ESE 10.4 mph - N/A   Unknown
5:30 AM 73.4 °F 64.4 °F 73% 29.98 in - ESE 10.4 mph - N/A   Unknown
6:00 AM 74 °F 65 °F 65% 30.01 in - SE 11.5 mph - -  
6:00 AM 73.4 °F 64.4 °F 73% 30.01 in - SE 11.5 mph - N/A   Unknown
6:30 AM 75.2 °F 64.4 °F 69% 30.01 in - SE 12.7 mph - N/A   Unknown
7:00 AM 77.0 °F 64.4 °F 65% 30.01 in - SE 12.7 mph - N/A   Unknown
7:30 AM 75.2 °F 66.2 °F 73% 30.04 in - SSE 17.3 mph - N/A   Unknown
8:00 AM 77.0 °F 64.4 °F 65% 30.04 in - SE 13.8 mph - N/A   Unknown
8:30 AM 77.0 °F 64.4 °F 65% 30.04 in - SE 16.1 mph - N/A   Unknown
9:00 AM 77 °F 64 °F 57% 30.05 in - SE 15.0 mph - -  
9:00 AM 77.0 °F 64.4 °F 65% 30.04 in - SE 15.0 mph - N/A   Unknown
9:30 AM 77.0 °F 64.4 °F 65% 30.04 in - ESE 15.0 mph - N/A   Unknown
10:00 AM 77.0 °F 64.4 °F 65% 30.04 in - ESE 13.8 mph - N/A   Unknown
10:30 AM 78.8 °F 66.2 °F 65% 30.04 in - ESE 15.0 mph - N/A   Unknown
11:00 AM 77.0 °F 62.6 °F 61% 30.01 in - East 13.8 mph - N/A   Unknown
11:30 AM 75.2 °F 64.4 °F 69% 30.01 in - East 15.0 mph - N/A   Unknown
12:00 PM 77 °F 64 °F 56% 30.00 in - East 13.8 mph - -  
12:00 PM 77.0 °F 64.4 °F 65% 30.01 in - East 13.8 mph - N/A   Unknown
12:30 PM 77.0 °F 64.4 °F 65% 29.98 in - East 13.8 mph - N/A   Unknown
1:00 PM 77.0 °F 64.4 °F 65% 29.98 in - East 16.1 mph - N/A   Unknown
1:30 PM 77.0 °F 64.4 °F 65% 29.98 in - East 18.4 mph - N/A   Unknown
2:00 PM 77.0 °F 62.6 °F 61% 29.95 in - East 19.6 mph - N/A   Unknown
2:30 PM 77.0 °F 64.4 °F 65% 29.95 in - East 19.6 mph - N/A   Unknown
3:00 PM 77.0 °F 64.4 °F 65% 29.92 in - East 19.6 mph - N/A   Unknown
3:30 PM 77.0 °F 62.6 °F 61% 29.92 in - East 20.7 mph - N/A   Unknown
4:00 PM 75.2 °F 62.6 °F 65% 29.92 in - East 23.0 mph - N/A   Unknown
4:30 PM 75.2 °F 62.6 °F 65% 29.92 in - East 20.7 mph - N/A   Unknown
5:00 PM 75.2 °F 62.6 °F 65% 29.92 in - East 20.7 mph - N/A   Unknown
5:30 PM 75.2 °F 62.6 °F 65% 29.92 in - East 19.6 mph - N/A   Unknown
6:00 PM 75 °F 62 °F 56% 29.94 in - East 20.7 mph - -  
6:00 PM 75.2 °F 62.6 °F 65% 29.95 in - East 20.7 mph - N/A   Unknown
6:30 PM 75.2 °F 62.6 °F 65% 29.95 in - East 18.4 mph - N/A   Unknown
7:00 PM 75.2 °F 62.6 °F 65% 29.95 in - East 19.6 mph - N/A   Unknown
7:30 PM 75.2 °F 62.6 °F 65% 29.98 in - East 17.3 mph - N/A   Unknown
8:00 PM 75.2 °F 62.6 °F 65% 29.98 in - East 16.1 mph - N/A   Unknown
8:30 PM 75.2 °F 62.6 °F 65% 29.98 in - East 16.1 mph - N/A   Unknown
9:00 PM 74 °F 63 °F 59% 30.00 in - East 15.0 mph - -  
9:00 PM 75.2 °F 62.6 °F 65% 29.98 in - East 15.0 mph - N/A   Unknown
9:30 PM 73.4 °F 62.6 °F 69% 29.98 in - East 13.8 mph - N/A   Unknown
10:00 PM 73.4 °F 62.6 °F 69% 30.01 in - East 12.7 mph - N/A   Unknown
11:00 PM 75.2 °F 62.6 °F 65% 30.01 in - East 10.4 mph - N/A   Unknown